| time (UTC) | temp F | wind direction | speed knots | gust knots | rain 1hr in | rain 24hr in | rain mn in | humidity % | barometer mb |
| 20260504044555 | 52 | 240 | 0.0 | 1.7 | 0.00 | 0.00 | 0.00 | 49 | 1012.8 |
| 20260504043101 | 52 | 246 | 0.0 | 0.9 | 0.00 | 0.00 | 0.00 | 49 | 1012.7 |
| 20260504041551 | 52 | 249 | 0.0 | 1.7 | 0.00 | 0.00 | 0.00 | 49 | 1012.5 |
| 20260504040110 | 52 | 249 | 0.0 | 2.6 | 0.00 | 0.00 | 0.00 | 49 | 1012.4 |
| 20260504034548 | 52 | 248 | 0.0 | 1.7 | 0.00 | 0.00 | 0.00 | 48 | 1012.5 |
| 20260504033047 | 52 | 253 | 0.0 | 0.9 | 0.00 | 0.00 | 0.00 | 48 | 1012.4 |
| 20260504031548 | 53 | 220 | 0.0 | 1.7 | 0.00 | 0.00 | 0.00 | 47 | 1012.4 |
| 20260504030046 | 53 | 248 | 0.0 | 1.7 | 0.00 | 0.00 | 0.00 | 45 | 1012.4 |
| 20260504024548 | 53 | 254 | 0.0 | 1.7 | 0.00 | 0.00 | 0.00 | 45 | 1012.3 |
| 20260504023053 | 52 | 255 | 0.0 | 0.9 | 0.00 | 0.00 | 0.00 | 47 | 1012.4 |
| 20260504021547 | 52 | 249 | 0.0 | 1.7 | 0.00 | 0.00 | 0.00 | 47 | 1012.4 |
| 20260504020046 | 53 | 282 | 0.0 | 0.0 | 0.00 | 0.00 | 0.00 | 46 | 1012.5 |
| 20260504014556 | 54 | 288 | 0.0 | 0.0 | 0.00 | 0.00 | 0.00 | 43 | 1012.3 |
| 20260504013042 | 55 | 289 | 0.0 | 0.0 | 0.00 | 0.00 | 0.00 | 42 | 1012.2 |
| 20260504011543 | 55 | 292 | 0.0 | 0.0 | 0.00 | 0.00 | 0.00 | 40 | 1012.1 |
| 20260504010049 | 56 | 292 | 0.0 | 0.0 | 0.00 | 0.00 | 0.00 | 39 | 1011.9 |
| 20260504004545 | 57 | 292 | 0.0 | 0.0 | 0.00 | 0.00 | 0.00 | 37 | 1011.7 |
| 20260504003043 | 58 | 296 | 0.0 | 0.0 | 0.00 | 0.00 | 0.00 | 35 | 1011.5 |
| 20260504001555 | 58 | 290 | 0.0 | 3.5 | 0.00 | 0.00 | 0.00 | 33 | 1011.2 |
| 20260504000040 | 59 | 241 | 0.0 | 8.7 | 0.00 | 0.00 | 0.00 | 32 | 1011.0 |
| 20260503234540 | 59 | 314 | 0.0 | 5.2 | 0.00 | 0.00 | 0.00 | 31 | 1010.8 |
| 20260503233042 | 60 | 276 | 0.0 | 5.2 | 0.00 | 0.00 | 0.00 | 31 | 1010.6 |
| 20260503231538 | 60 | 319 | 0.9 | 7.8 | 0.00 | 0.00 | 0.00 | 30 | 1010.6 |
| 20260503230038 | 60 | 314 | 0.9 | 7.0 | 0.00 | 0.00 | 0.00 | 30 | 1010.5 |
| 20260503224538 | 60 | 333 | 0.9 | 7.8 | 0.00 | 0.00 | 0.00 | 29 | 1010.3 |
| 20260503223037 | 60 | 291 | 0.0 | 12.2 | 0.00 | 0.00 | 0.00 | 29 | 1010.3 |
| 20260503221536 | 61 | 60 | 0.0 | 11.3 | 0.00 | 0.00 | 0.00 | 29 | 1010.4 |
| 20260503220035 | 60 | 299 | 1.7 | 7.8 | 0.00 | 0.00 | 0.00 | 28 | 1010.3 |
| 20260503214533 | 60 | 303 | 5.2 | 13.0 | 0.00 | 0.00 | 0.00 | 27 | 1010.4 |
| 20260503213033 | 60 | 314 | 0.9 | 9.6 | 0.00 | 0.00 | 0.00 | 29 | 1010.4 |
| 20260503211532 | 59 | 284 | 4.3 | 11.3 | 0.00 | 0.00 | 0.00 | 28 | 1010.4 |
| 20260503210031 | 59 | 239 | 3.5 | 11.3 | 0.00 | 0.00 | 0.00 | 29 | 1010.3 |
| 20260503204534 | 59 | 274 | 1.7 | 12.2 | 0.00 | 0.00 | 0.00 | 30 | 1010.3 |
| 20260503203129 | 60 | 306 | 3.5 | 12.2 | 0.00 | 0.00 | 0.00 | 30 | 1010.5 |
| 20260503201528 | 59 | 278 | 1.7 | 8.7 | 0.00 | 0.00 | 0.00 | 30 | 1010.4 |
| 20260503200026 | 58 | 339 | 4.3 | 14.8 | 0.00 | 0.00 | 0.00 | 29 | 1010.6 |
| 20260503194526 | 58 | 274 | 1.7 | 14.8 | 0.00 | 0.00 | 0.00 | 31 | 1010.6 |
| 20260503193036 | 58 | 261 | 2.6 | 13.0 | 0.00 | 0.00 | 0.00 | 32 | 1010.7 |
| 20260503191521 | 57 | 237 | 3.5 | 15.6 | 0.00 | 0.00 | 0.00 | 32 | 1011.0 |
| 20260503190018 | 57 | 319 | 0.9 | 14.8 | 0.00 | 0.00 | 0.00 | 34 | 1010.9 |
| 20260503184523 | 57 | 306 | 3.5 | 12.2 | 0.00 | 0.00 | 0.00 | 34 | 1011.0 |
| 20260503183016 | 56 | 295 | 4.3 | 13.9 | 0.00 | 0.00 | 0.00 | 34 | 1011.2 |
| 20260503181513 | 56 | 38 | 1.7 | 6.1 | 0.00 | 0.00 | 0.00 | 38 | 1011.3 |
| 20260503180017 | 55 | 330 | 0.9 | 8.7 | 0.00 | 0.00 | 0.00 | 37 | 1011.3 |
| 20260503174509 | 54 | 324 | 3.5 | 12.2 | 0.00 | 0.00 | 0.00 | 38 | 1011.6 |
| 20260503173019 | 54 | 335 | 1.7 | 13.0 | 0.00 | 0.00 | 0.00 | 39 | 1011.5 |
| 20260503171512 | 54 | 319 | 5.2 | 12.2 | 0.00 | 0.00 | 0.00 | 40 | 1011.8 |
| 20260503081518 | 47 | 360 | 0.0 | 1.7 | 0.00 | 0.01 | 0.00 | 53 | 1010.6 |
| 20260503071512 | 48 | 57 | 0.0 | 1.7 | 0.00 | 0.01 | 0.00 | 51 | 1010.5 |